This is the latest recevied weather packets stored in our database for station/object N0NPO. If no packets are shown the sender has not sent any weather packets the latest 10 day(s).
| Time | Temp. | Humidity | Pressure | Rain* | Wind** | Luminosity | Snow |
|---|---|---|---|---|---|---|---|
| 1778105578 | 11.67° C | 1% | 1018.2 hPa | 0 mm | - | 239 W/m² | - |
| 1778105276 | 12.22° C | 1% | 1018.2 hPa | 0 mm | - | 170 W/m² | - |
| 1778104970 | 13.33° C | 1% | 1018.2 hPa | 0 mm | - | 247 W/m² | - |
| 1778104667 | 12.78° C | 1% | 1018.2 hPa | 0 mm | - | 499 W/m² | - |
| 1778104362 | 11.67° C | 1% | 1018.2 hPa | 0 mm | - | 193 W/m² | - |
| 1778104054 | 11.67° C | 1% | 1018.4 hPa | 0 mm | - | 164 W/m² | - |
| 1778103751 | 12.22° C | 1% | 1018.4 hPa | 0 mm | - | 643 W/m² | - |
| 1778103449 | 12.22° C | 1% | 1018.4 hPa | 0 mm | - | 593 W/m² | - |
| 1778103146 | 12.22° C | 1% | 1018.7 hPa | 0 mm | - | 188 W/m² | - |
| 1778102843 | 12.22° C | 1% | 1018.6 hPa | 0 mm | - | 355 W/m² | - |
| 1778102539 | 13.33° C | 1% | 1018.6 hPa | 0 mm | - | 601 W/m² | - |
| 1778102234 | 12.22° C | 1% | 1018.8 hPa | 0 mm | - | 651 W/m² | - |
| 1778101931 | 11.67° C | 1% | 1018.8 hPa | 0 mm | - | 192 W/m² | - |
| 1778101628 | 12.22° C | 1% | 1018.8 hPa | 0 mm | - | 593 W/m² | - |
| 1778101325 | 12.22° C | 1% | 1018.9 hPa | 0 mm | - | 658 W/m² | - |
| 1778101022 | 12.78° C | 1% | 1019.1 hPa | 0 mm | - | 639 W/m² | - |
| 1778100716 | 12.78° C | 1% | 1019.1 hPa | 0 mm | - | 626 W/m² | - |
| 1778100414 | 12.78° C | 1% | 1019.1 hPa | 0 mm | - | 635 W/m² | - |
| 1778100111 | 12.78° C | 1% | 1019.3 hPa | 0 mm | - | 618 W/m² | - |
| 1778099810 | 12.22° C | 1% | 1019.4 hPa | 0 mm | - | 642 W/m² | - |
| 1778099506 | 11.67° C | 1% | 1019.4 hPa | 0 mm | - | 656 W/m² | - |
| 1778099204 | 11.67° C | 1% | 1019.5 hPa | 0 mm | - | 680 W/m² | - |
| 1778098900 | 11.67° C | 1% | 1019.5 hPa | 0 mm | - | 685 W/m² | - |
| 1778098597 | 11.67° C | 1% | 1019.8 hPa | 0 mm | - | 546 W/m² | - |
| 1778098293 | 11.11° C | 1% | 1019.6 hPa | 0 mm | - | 653 W/m² | - |
* Rain latest hour (hover to see other rain measurements)
** Current wind speed in m/s (hover to see current wind gust speed)